User: anonymous   Login
Location: Carrer del Canonge
(41.4901°N, 2.2931°E)
Time: 05:22:04
(UTC+00:00)
Language:

In-Cosmos 22 - Orbit

View from above orbital plane
View from above orbital plane
View from above satellite
View from above satellite

Ground track
Ground track

The orbit data is extracted from the following two-line orbital elements,

1 12645U 81075A   21208.64393347  .00000026  00000-0  65737-5 0  9992
2 12645  81.2178 175.3559 0062552 291.0398  68.4095 14.18397867 67182
Epoch (UTC): 27 July 2021 15:27:15
Eccentricity: 0.0062552
inclination: 81.2178°
perigee height: 785 km
apogee height: 876 km
right ascension of ascending node: 175.3559°
argument of perigee: 291.0398°
revolutions per day: 14.18397867
mean anomaly at epoch: 68.4095°
orbit number at epoch: 6718

The dashed part of the orbit path shows where the satellite is in the earth's shadow,  

DLR